GLOBALSTAR M090 [+]

Last updated on Fri Dec 29 2023 00:02:57 GMT+0000 (Coordinated Universal Time)

1 38044U 11080E 23362.45865681 -.00000093 00000+0 62059-4 0 9996 2 38044 51.9858 193.7786 0001374 89.5931 351.1720 12.62265241555878

Satellite not in orbit